星链-5576 (STARLINK-5576 )

导读

STARLINK-5576是美国星链(Starlink)项目中的一颗卫星,于2023年1月26日发射升空,属于SpaceX打造的低轨卫星互联网星座组网卫星。它旨在为全球范围内用户提供高覆盖、低延迟的宽带互联网服务,尤其服务偏远无网络覆盖区域,拓展全球网络连接的边界。

Basic Information
目录编号:
55382
目录名称:
STARLINK-5576
国际标识:
2023-013BD
轨道中心:
EARTH
卫星名称:
星链-5576
卫星全名:
星链-5576 (STARLINK-5576 )
卫星状态:
在轨 (已飞行1236 天)
发射日期:
2023-01-26 UTC
国别 :
美国 (US)
星等 :
--
Orbit Information
数据来源 国际轨道数据 AOE轨道数据
星历时间 2026-06-14T13:15:10+0800
22小时前
查看轨道信息
2026-06-13T00:00:00+0800
2天前
查看轨道信息
半长轴 6861.214km 6861.18km
偏心率 0.0000933 0.000001
轨道倾角 43.002° 43.002°
近地点辐角 268.344° 187.839°
升交点赤经 133.172° 141.941°
平近点角 91.731° 266.263°
近地点 482.436km 483.036km
远地点 483.718km 483.05km
周期 94.267分钟 94.267分钟
每日圈数 15.275707 15.275822
Detailed Information
固有亮度:
5
最大亮度:
2.5
卫星平台:
Starlink v1.5
覆盖范围:
全球
运营商:
太空探索技术公司
运营商所在国:
美国
制造商(研发单位):
太空探索技术公司
制造商所在国:
美国
使用方式:
暂无
Satellite Introduction
星链(Starlink)计划是由太空探索技术公司(SpaceX)提出的一个巨型低轨卫星互联网星座项目,计划在2019年至2024年间在太空搭建由约1.2万颗卫星组成的“星链”网络,其中1584颗将部署在地球上空550千米处的近地轨道,并从2020年开始工作。该卫星仍在工作。
2D Orbit Map
3D Orbit Map
Orbit Altitude Analysis Chart
Orbit Inclination Analysis Chart
Orbit Comprehensive Analysis Chart
View Comprehensive Chart